Beaufort, SC

12:05 AM EST on February 07, 2016 (GMT -0500)
Beaufort

Weather History for KARW - March, 2014

Change the Weather History Date:

Sunday, March 2, 2014

  Actual Average (KNBC) Record (KNBC)
Temperature  
Mean Temperature 56 °F -  
Max Temperature 69 °F 66 °F 84 °F (1951)
Min Temperature 42 °F 43 °F 22 °F (1980)
Degree Days  
Heating Degree Days 10    
Growing Degree Days 6 (Base 50)    
Moisture  
Dew Point 47 °F    
Average Humidity 78    
Maximum Humidity 100    
Minimum Humidity 45    
Precipitation  
Precipitation 0.00 in - - ()
Sea Level Pressure  
Sea Level Pressure 30.16 in    
Wind  
Wind Speed 2 mph (SSW)    
Max Wind Speed 8 mph    
Max Gust Speed -    
Visibility 9 miles    
Events      
Averages and records for this station are not official NWS values.
T = Trace of Precipitation, MM = Missing Value Source: NWS Daily Summary

Daily Weather History Graph

Daily Weather History Graph

Search for Another Location

Airport or City:

Trip Planner

Search our weather history database for the weather conditions in past years. The results will help you decide how hot, cold, wet, or windy it might be!

Date:

Astronomy

Mar. 02, 2014 Rise Set
Actual Time 6:48 AM EST 6:20 PM EST
Civil Twilight 6:24 AM EST 6:45 PM EST
Nautical Twilight 5:55 AM EST 7:13 PM EST
Astronomical Twilight 5:27 AM EST 7:42 PM EST
Moon 7:26 AM EST (3/2) 8:06 PM EST (3/2)
Length of Visible Light 12h 21m
Length of Day
11h 31m
Waxing Crescent, 3% of the Moon is Illuminated
Mar 2
Waxing Crescent
Mar 8
First Quarter
Mar 16
Full
Mar 23
Last Quarter
Mar 30
New

Hourly Weather History & Observations

Time (EST) Temp. Windchill Dew Point Humidity Pressure Visibility Wind Dir Wind Speed Gust Speed Precip Events Conditions
12:15 AM 46.4 °F - 46.4 °F 100% 30.26 in 10.0 mi Calm Calm - N/A   Clear
12:55 AM 46.4 °F - 46.4 °F 100% 30.25 in 7.0 mi Calm Calm - N/A   Clear
1:35 AM 44.6 °F - 44.6 °F 100% 30.23 in 5.0 mi Calm Calm - N/A   Clear
1:55 AM 44.6 °F - 44.6 °F 100% 30.22 in 7.0 mi Calm Calm - N/A   Clear
2:15 AM 44.6 °F - 44.6 °F 100% 30.22 in 10.0 mi Calm Calm - N/A   Clear
2:35 AM 44.6 °F - 44.6 °F 100% 30.22 in 7.0 mi Calm Calm - N/A   Clear
2:55 AM 44.6 °F 43.1 °F 44.6 °F 100% 30.21 in 10.0 mi WNW 3.5 mph - N/A   Clear
3:15 AM 44.6 °F - 44.6 °F 100% 30.21 in 5.0 mi Calm Calm - N/A   Clear
3:35 AM 44.6 °F - 44.6 °F 100% 30.20 in 5.0 mi Calm Calm - N/A   Clear
3:55 AM 42.8 °F - 42.8 °F 100% 30.20 in 7.0 mi Calm Calm - N/A   Clear
4:35 AM 42.8 °F - 42.8 °F 100% 30.20 in 7.0 mi Calm Calm - N/A   Clear
4:55 AM 42.8 °F - 42.8 °F 100% 30.21 in 7.0 mi Calm Calm - N/A   Clear
5:15 AM 42.8 °F - 42.8 °F 100% 30.21 in 4.0 mi Calm Calm - N/A   Clear
5:35 AM 42.8 °F - 42.8 °F 100% 30.22 in 10.0 mi Calm Calm - N/A   Clear
5:55 AM 42.8 °F - 42.8 °F 100% 30.22 in 7.0 mi Calm Calm - N/A   Clear
6:15 AM 42.8 °F - 42.8 °F 100% 30.23 in 7.0 mi Calm Calm - N/A   Clear
6:35 AM 44.6 °F - 44.6 °F 100% 30.23 in 5.0 mi Calm Calm - N/A   Clear
6:55 AM 42.8 °F - 42.8 °F 100% 30.23 in 4.0 mi Calm Calm - N/A   Clear
7:15 AM 42.8 °F - 42.8 °F 100% 30.24 in 4.0 mi Calm Calm - N/A   Clear
7:35 AM 42.8 °F - 42.8 °F 100% 30.24 in 10.0 mi Calm Calm - N/A   Clear
7:55 AM 46.4 °F - 46.4 °F 100% 30.24 in 10.0 mi Calm Calm - N/A   Clear
8:15 AM 50.0 °F - 50.0 °F 100% 30.24 in 10.0 mi Calm Calm - N/A   Clear
8:55 AM 53.6 °F - 50.0 °F 88% 30.26 in 10.0 mi Calm Calm - N/A   Clear
9:15 AM 55.4 °F - 50.0 °F 82% 30.25 in 10.0 mi Calm Calm - N/A   Clear
9:35 AM 57.2 °F - 50.0 °F 77% 30.25 in 10.0 mi Calm Calm - N/A   Clear
9:55 AM 60.8 °F - 50.0 °F 68% 30.24 in 10.0 mi Calm Calm - N/A   Clear
10:15 AM 60.8 °F - 50.0 °F 68% 30.24 in 10.0 mi Calm Calm - N/A   Clear
10:35 AM 60.8 °F - 48.2 °F 63% 30.24 in 10.0 mi NNW 3.5 mph - N/A   Clear
10:55 AM 62.6 °F - 50.0 °F 63% 30.23 in 10.0 mi Calm Calm - N/A   Clear
11:15 AM 64.4 °F - 48.2 °F 56% 30.23 in 10.0 mi Calm Calm - N/A   Clear
11:35 AM 64.4 °F - 50.0 °F 59% 30.22 in 10.0 mi Calm Calm - N/A   Clear
11:55 AM 66.2 °F - 50.0 °F 56% 30.20 in 7.0 mi SW 5.8 mph - N/A   Clear
12:15 PM 66.2 °F - 50.0 °F 56% 30.19 in 10.0 mi South 4.6 mph - N/A   Clear
12:35 PM 66.2 °F - 50.0 °F 56% 30.19 in 7.0 mi SW 6.9 mph - N/A   Clear
1:15 PM 68.0 °F - 48.2 °F 49% 30.17 in 10.0 mi WSW 3.5 mph - N/A   Clear
1:35 PM 68.0 °F - 50.0 °F 52% 30.16 in 7.0 mi West 4.6 mph - N/A   Clear
1:55 PM 68.0 °F - 50.0 °F 52% 30.15 in 7.0 mi SW 4.6 mph - N/A   Clear
2:15 PM 69.8 °F - 48.2 °F 46% 30.15 in 7.0 mi SSW 5.8 mph - N/A   Clear
2:35 PM 68.0 °F - 46.4 °F 46% 30.14 in 10.0 mi South 5.8 mph - N/A   Clear
2:55 PM 68.0 °F - 46.4 °F 46% 30.13 in 10.0 mi South 4.6 mph - N/A   Clear
3:15 PM 69.8 °F - 48.2 °F 46% 30.12 in 10.0 mi SW 5.8 mph - N/A   Clear
3:35 PM 68.0 °F - 46.4 °F 46% 30.11 in 10.0 mi South 4.6 mph - N/A   Clear
3:55 PM 68.0 °F - 46.4 °F 46% 30.11 in 10.0 mi SSE 8.1 mph - N/A   Clear
4:15 PM 68.0 °F - 46.4 °F 46% 30.11 in 10.0 mi SSW 5.8 mph - N/A   Clear
4:35 PM 66.2 °F - 44.6 °F 46% 30.10 in 10.0 mi South 3.5 mph - N/A   Clear
4:55 PM 64.4 °F - 42.8 °F 45% 30.10 in 10.0 mi South 6.9 mph - N/A   Clear
5:35 PM 62.6 °F - 41.0 °F 45% 30.09 in 10.0 mi SSE 3.5 mph - N/A   Clear
5:55 PM 60.8 °F - 41.0 °F 48% 30.09 in 7.0 mi South 4.6 mph - N/A   Clear
6:15 PM 60.8 °F - 42.8 °F 52% 30.09 in 7.0 mi South 3.5 mph - N/A   Clear
6:35 PM 59.0 °F - 42.8 °F 55% 30.09 in 7.0 mi South 5.8 mph - N/A   Clear
6:55 PM 55.4 °F - 44.6 °F 67% 30.09 in 10.0 mi South 3.5 mph - N/A   Clear
7:15 PM 55.4 °F - 44.6 °F 67% 30.08 in 10.0 mi South 4.6 mph - N/A   Clear
7:35 PM 55.4 °F - 44.6 °F 67% 30.08 in 10.0 mi South 3.5 mph - N/A   Clear
7:55 PM 55.4 °F - 46.4 °F 72% 30.07 in 10.0 mi Calm Calm - N/A   Clear
8:15 PM 53.6 °F - 48.2 °F 82% 30.07 in 10.0 mi SSW 3.5 mph - N/A   Clear
8:35 PM 53.6 °F - 50.0 °F 88% 30.07 in 10.0 mi SSW 4.6 mph - N/A   Clear
8:55 PM 55.4 °F - 51.8 °F 88% 30.07 in 10.0 mi South 4.6 mph - N/A   Clear
9:15 PM 55.4 °F - 53.6 °F 94% 30.07 in 10.0 mi SSW 4.6 mph - N/A   Clear
9:35 PM 55.4 °F - 53.6 °F 94% 30.07 in 10.0 mi SSW 5.8 mph - N/A   Clear
9:55 PM 55.4 °F - 53.6 °F 94% 30.06 in 10.0 mi South 8.1 mph - N/A   Clear
10:35 PM 55.4 °F - 55.4 °F 100% 30.05 in 10.0 mi South 3.5 mph - N/A   Clear
10:55 PM 55.4 °F - 55.4 °F 100% 30.04 in 10.0 mi SSW 4.6 mph - N/A   Clear
11:35 PM 55.4 °F - 53.6 °F 94% 30.04 in 10.0 mi South 4.6 mph - N/A   Clear
11:55 PM 53.6 °F - 53.6 °F 100% 30.04 in 10.0 mi Calm Calm - N/A   Clear